Regional Weather Roundup
Issued by NWS

Home | Current Version | Previous Version | Graphics & Text | Print | Product List | Glossary On
Versions: 1 2 3 4 5 6 7 8 9 10 11 12 13 14 15 16 17 18 19 20 21 22 23 24 25 26 27 28 29 30 31 32 33 34 35 36 37 38 39 40 41 42 43 44 45 46 47 48 49 50
000
ASUS45 KCYS 280510
RWRWY

WYOMING REGIONAL WEATHER ROUNDUP
NATIONAL WEATHER SERVICE CHEYENNE WY
1100 PM MDT MON JUL 27 2015

NOTE:  "FAIR" INDICATES FEW OR NO CLOUDS BELOW 12,000 FEET
WITH NO SIGNIFICANT WEATHER AND/OR OBSTRUCTIONS TO VISIBILITY.

WYZ001-280600-
YELLOWSTONE NATIONAL PARK

CITY           SKY/WX    TMP DP  RH WIND       PRES   REMARKS
LK YELLOWSTONE   N/A     36  34  92 CALM      30.26R
W YELLOWSTONE  NOT AVBL

$$
WYZ002>013-054>058-071-098>099-280600-
NORTHERN WYOMING

CITY           SKY/WX    TMP DP  RH WIND       PRES   REMARKS
JACKSON        FAIR      45  39  81 CALM      30.25R
CODY           FAIR      55  34  44 SW21G33   30.04S
GREYBULL       FAIR      55  46  71 S7        29.98R
WORLAND        FAIR      56  45  66 N7        30.00R
SHERIDAN       FAIR      53  45  74 NW7       29.96R
BUFFALO        FAIR      51  46  83 N15G24    29.98R
GILLETTE       FAIR      51  46  83 W5        29.95R
HULETT         FAIR      55  50  82 SW5       29.93S
NEWCASTLE      FAIR      55  48  76 NW20G28   29.91R

$$
WYZ014>020-022>026-101>103-280600-
CENTRAL WYOMING

CITY           SKY/WX    TMP DP  RH WIND       PRES   REMARKS
BIG PINEY      FAIR      44  27  51 NW8       30.25R
PINEDALE       FAIR      41  32  70 W7        30.26S
DUBOIS         DRIZZLE   43  34  70 NW18G29   30.18R
LANDER         FAIR      60  25  26 NW7       30.07R
RIVERTON       FAIR      56  31  38 N14G25    30.07R
CASPER         FAIR      54  31  41 W9        30.03R
DOUGLAS        FAIR      67  40  37 NW18G28   29.98R

$$
WYZ021-027>030-104>119-280600-
SOUTHERN WYOMING

CITY           SKY/WX    TMP DP  RH WIND       PRES   REMARKS
EVANSTON       FAIR      51  34  52 NW7       30.27R
KEMMERER       MOCLDY    48  34  57 W10       30.27R
FORT BRIDGER   CLEAR     50  34  53 W5        30.29R
ROCK SPRINGS   FAIR      57  33  40 W17G26    30.20R
DIXON          FAIR      59  31  34 NW5       30.24R
RAWLINS        FAIR      57  27  31 W22G38    30.16R
SARATOGA       FAIR      55  32  41 W14       30.22R
LARAMIE        FAIR      60  34  37 NW13G21   30.13R
CHEYENNE       FAIR      68  36  30 NW15      30.02R
TORRINGTON     FAIR      73  42  32 NW10      29.85R
PINE BLUFFS    FAIR      72  36  26 NW24G33   29.93R

$$



USA.gov is the U.S. government's official web portal to all federal, state and local government web resources and services.